#timestamp,LO_Frequency,Hit,StdDev 
1554386415.2,286046997.3,N
1554386435.0,286046997.4,N
1554386435.9,286046997.4,N
1554386455.8,286046995.4,Y
1554386475.6,286046999.0,P
1554386495.4,286046999.4,N
1554386515.3,286046999.4,N
1554386535.1,286046999.3,N
1554386555.9,286046999.1,N
1554386575.7,286046996.6,Y
1554386595.5,286046998.2,P
1554386615.4,286046998.6,P
1554386635.2,286046998.2,P
1554386655.0,286046998.2,Y
1554386655.9,286046998.2,P
1554386675.8,286047002.3,P
1554386695.6,286047000.2,N
1554386715.5,286046999.9,N
1554386735.3,286046999.9,N
1554386755.1,286047000.3,N
1554386775.9,286047000.0,N
1554386795.7,286047000.0,N
1554386815.5,286047000.5,N
1554386835.4,286047000.5,N
1554386855.2,286047000.6,N
1554386875.1,286047000.9,N
1554386876.0,286047000.9,N
1554386895.8,286047001.0,N
1554386915.6,286047000.4,N
1554386935.5,286047000.5,N
1554386955.3,286047001.2,N
1554386975.1,286046998.5,N
1554386995.9,286046998.3,N
1554387015.7,286046998.9,N
1554387035.6,286046998.9,N
1554387055.4,286046998.8,N
1554387075.2,286046998.7,N
1554387095.1,286046998.9,N
1554387096.0,286046998.9,N
1554387115.8,286046998.8,N
1554387135.6,286046999.3,N
1554387155.5,286046998.3,N
1554387175.3,286046998.3,N
1554387195.2,286046998.6,N
1554387215.9,286046998.4,N
1554387235.7,286046998.7,N
1554387255.6,286046998.7,N
1554387275.4,286046999.5,N
1554387295.2,286046999.0,N
1554387315.1,286046999.4,N
1554387316.0,286046999.4,N
1554387335.8,286046999.1,N
1554387355.7,286046999.6,N
1554387375.5,286046999.6,N
1554387395.3,286046999.6,N
1554387415.2,286046999.6,N
1554387435.0,286046996.6,Y
1554387435.9,286046996.6,P
1554387455.8,286046999.4,N
1554387475.6,286046999.2,N
1554387525.5,286046996.6,E
1554387535.4,286046998.2,N
1554387555.2,286047002.8,P
1554387575.1,286047002.8,N
1554387576.0,286047002.8,N
1554387595.8,286046999.8,N
1554387615.6,286046999.7,N
1554387635.5,286047000.1,N
1554387655.3,286046999.9,N
1554387675.1,286046999.9,N
1554387695.9,286046999.8,N
1554387715.7,286047000.6,N
1554387735.6,286047000.0,N
1554387755.4,286047000.4,N
1554387775.2,286047000.3,N
1554387795.1,286047000.0,N
1554387796.0,286047000.0,N
1554387815.8,286047000.5,N
1554387835.6,286047000.9,N
1554387855.5,286047001.0,N
1554387875.3,286047000.7,N
1554387895.2,286047000.4,N
1554387915.9,286047000.6,N
1554387935.7,286047000.7,N
1554387955.6,286046998.1,N
1554387975.4,286046998.6,N
1554387995.2,286046998.4,N
1554388015.1,286046998.8,N
1554388016.0,286046998.8,N
1554388035.8,286046998.6,N
1554388055.7,286046999.4,N
1554388075.5,286046999.4,N
1554388095.3,286046999.3,N
1554388115.2,286046999.1,N
1554388135.9,286046999.0,N
1554388155.7,286046999.1,N
1554388175.6,286046999.2,N
1554388195.4,286046999.5,N
1554388215.3,286046996.5,Y
1554388235.1,286046996.7,P
1554388236.0,286046996.7,N
1554388285.9,286046996.7,E
1554388295.8,286046998.8,N
1554388315.6,286047000.0,P
1554388335.5,286047000.3,N
1554388355.3,286047000.6,N
1554388375.1,286047000.6,N
1554388395.9,286047000.9,N
1554388415.7,286047000.4,N
1554388435.5,286047001.0,N
1554388455.4,286047000.8,N
1554388475.2,286047001.1,N
1554388495.1,286047001.2,N
1554388526.0,286046998.2,E
1554388535.0,286047001.0,N
1554388535.9,286047001.0,P
1554388555.7,286047002.5,P
1554388575.6,286046999.8,N
1554388595.4,286047002.4,N
1554388615.3,286047000.4,N
1554388635.1,286047000.1,N
1554388636.0,286047000.1,N
1554388655.8,286046999.9,N
1554388675.7,286047000.0,N
1554388695.5,286046999.8,N
1554388715.3,286047000.4,N
1554388735.2,286047000.6,N
1554388755.0,286047000.0,N
1554388755.9,286047000.0,N
1554388775.8,286047000.0,N
1554388795.6,286047000.5,N
1554388815.4,286047000.4,N
1554388835.3,286047000.9,N
1554388855.1,286047000.8,N
1554388875.9,286046998.4,N
1554388895.7,286047000.8,N
1554388915.5,286046998.2,N
1554388935.4,286046998.6,N
1554388955.2,286046999.0,N
1554388975.1,286046998.4,N
1554388976.0,286046998.4,N
1554388995.8,286046998.4,N
1554389015.6,286046999.5,N
1554389035.5,286046999.4,N
1554389055.3,286046999.2,N
1554389075.1,286046999.6,N
1554389095.9,286046996.5,Y
1554389115.7,286046996.5,P
1554389135.6,286046999.1,N
1554389155.4,286046997.2,N
1554389175.2,286046997.4,N
1554389195.1,286046997.8,N
1554389196.0,286046997.8,N
1554389215.8,286046997.8,N
1554389235.7,286046997.6,N
1554389255.5,286046997.8,N
1554389275.3,286046995.3,Y
1554389295.2,286046998.7,P
1554389315.0,286046998.8,P
1554389315.9,286046998.8,P
1554389335.8,286046999.2,N
1554389355.6,286046997.2,Y
1554389375.4,286046998.7,P
1554389395.3,286046999.5,P
1554389415.1,286046999.4,N
1554389435.9,286046999.4,N
1554389455.7,286046999.6,N
1554389475.5,286046999.4,N
1554389495.4,286046997.0,Y
1554389515.2,286046998.8,P
1554389535.0,286046998.8,P
1554389535.9,286046998.8,P
1554389555.8,286046999.0,Y
1554389575.6,286046998.1,P
1554389595.5,286046998.3,P
1554389615.3,286046998.9,P
1554389635.1,286046998.8,Y
1554389655.9,286047001.0,P
1554389675.7,286047000.7,N
1554389695.6,286047001.2,N
1554389715.4,286047001.1,N
1554389735.2,286047001.1,N
1554389755.1,286047001.2,N
1554389756.0,286047001.2,N
1554389775.8,286046998.1,N
1554389795.6,286046998.2,N
1554389815.5,286046998.8,N
1554389835.3,286046998.2,N
1554389855.2,286046998.3,N
1554389875.9,286046998.7,N
1554389895.7,286046998.8,N
1554389915.6,286046999.0,N
1554389935.4,286046999.2,N
1554389955.2,286046999.5,N
1554389975.1,286046999.5,N
1554389976.0,286046999.5,N
1554389995.8,286046999.6,N
